Location: Alexandria
(38.8050°N, 77.0470°W)
Time: 11:56:03
(UTC-04:00)

ELECTRON R/B - Visible Passes

Search period start: 20 May 2018 00:00
Search period end: 30 May 2018 00:00
Orbit: 285 x 480 km, 82.9° (Epoch: 19 May)

Date Brightness Start Highest point End Pass type
(mag) Time Alt. Az. Time Alt. Az. Time Alt. Az.
20 May 7.0 22:38:29 10° NW 22:39:49 19° WNW 22:39:49 19° WNW visible
21 May 5.2 21:41:55 10° NNE 21:44:07 32° ENE 21:44:07 32° ENE visible
22 May 6.2 22:18:25 10° NNW 22:20:32 26° W 22:20:40 25° W visible
23 May 5.5 21:21:54 10° NNE 21:24:04 27° E 21:24:54 22° ESE visible
24 May 6.0 21:58:04 10° NNW 22:00:17 31° W 22:01:22 21° SW visible
25 May 5.8 21:01:37 10° NNE 21:03:40 23° E 21:05:31 12° SE visible
26 May 5.6 21:37:25 10° NNW 21:39:46 40° W 21:41:55 12° SSW visible
28 May 5.2 21:16:31 10° NNW 21:18:56 52° W 21:21:28 10° S visible
